| time (UTC) | temp F | wind direction | speed knots | gust knots | rain 1hr in | rain 24hr in | rain mn in | humidity % | barometer mb |
| 20260508195402 | 57 | 49 | 1.7 | 3.5 | 0.00 | 0.00 | 0.00 | 66 | 1018.2 |
| 20260508194903 | 58 | 47 | 2.6 | 3.5 | 0.00 | 0.00 | 0.00 | 66 | 1018.2 |
| 20260508194404 | 58 | 51 | 1.7 | 3.5 | 0.00 | 0.00 | 0.00 | 64 | 1018.1 |
| 20260508193919 | 58 | 51 | 1.7 | 3.5 | 0.00 | 0.00 | 0.00 | 64 | 1018.1 |
| 20260508193402 | 59 | 55 | 1.7 | 2.6 | 0.00 | 0.00 | 0.00 | 63 | 1018.1 |
| 20260508192902 | 59 | 55 | 0.9 | 4.3 | 0.00 | 0.00 | 0.00 | 62 | 1018.1 |
| 20260508192405 | 59 | 54 | 1.7 | 4.3 | 0.00 | 0.00 | 0.00 | 60 | 1018.0 |
| 20260508191902 | 60 | 61 | 2.6 | 4.3 | 0.00 | 0.00 | 0.00 | 59 | 1017.9 |
| 20260508191403 | 60 | 48 | 2.6 | 4.3 | 0.00 | 0.00 | 0.00 | 58 | 1017.9 |
| 20260508190902 | 60 | 48 | 1.7 | 4.3 | 0.00 | 0.00 | 0.00 | 58 | 1017.8 |
| 20260508190403 | 60 | 51 | 1.7 | 4.3 | 0.00 | 0.00 | 0.00 | 57 | 1017.7 |
| 20260508190145 | 61 | 59 | 2.6 | 5.2 | 0.00 | 0.00 | 0.00 | 57 | 1017.7 |
| 20260508185648 | 61 | 59 | 3.5 | 6.1 | 0.00 | 0.00 | 0.00 | 55 | 1017.5 |
| 20260508184915 | 61 | 49 | 3.5 | 6.1 | 0.00 | 0.00 | 0.00 | 56 | 1017.5 |
| 20260508184402 | 62 | 54 | 2.6 | 7.8 | 0.00 | 0.00 | 0.00 | 55 | 1017.4 |
| 20260508183902 | 62 | 39 | 5.2 | 7.8 | 0.00 | 0.00 | 0.00 | 54 | 1017.4 |
| 20260508183403 | 62 | 62 | 3.5 | 5.2 | 0.00 | 0.00 | 0.00 | 54 | 1017.4 |
| 20260508182905 | 62 | 52 | 1.7 | 6.1 | 0.00 | 0.00 | 0.00 | 54 | 1017.4 |
| 20260508182417 | 62 | 82 | 2.6 | 6.1 | 0.00 | 0.00 | 0.00 | 54 | 1017.3 |
| 20260508182204 | 62 | 66 | 1.7 | 5.2 | 0.00 | 0.00 | 0.00 | 54 | 1017.3 |
| 20260508181403 | 62 | 62 | 3.5 | 6.1 | 0.00 | 0.00 | 0.00 | 54 | 1017.3 |
| 20260508180904 | 62 | 45 | 2.6 | 6.1 | 0.00 | 0.00 | 0.00 | 53 | 1017.2 |
| 20260508180402 | 62 | 56 | 3.5 | 5.2 | 0.00 | 0.00 | 0.00 | 53 | 1017.3 |
| 20260508180147 | 62 | 34 | 3.5 | 5.2 | 0.00 | 0.00 | 0.00 | 52 | 1017.2 |
| 20260508175404 | 63 | 52 | 0.0 | 4.3 | 0.00 | 0.00 | 0.00 | 54 | 1017.2 |
| 20260508174903 | 63 | 54 | 2.6 | 5.2 | 0.00 | 0.00 | 0.00 | 52 | 1017.2 |
| 20260508174402 | 63 | 56 | 3.5 | 5.2 | 0.00 | 0.00 | 0.00 | 52 | 1017.1 |
| 20260508173906 | 63 | 61 | 1.7 | 5.2 | 0.00 | 0.00 | 0.00 | 52 | 1017.1 |
| 20260508173402 | 63 | 82 | 3.5 | 6.1 | 0.00 | 0.00 | 0.00 | 52 | 1017.0 |
| 20260508172902 | 63 | 59 | 2.6 | 7.8 | 0.00 | 0.00 | 0.00 | 52 | 1017.0 |
| 20260508172402 | 63 | 56 | 1.7 | 7.8 | 0.00 | 0.00 | 0.00 | 52 | 1017.0 |
| 20260508171902 | 63 | 79 | 4.3 | 6.1 | 0.00 | 0.00 | 0.00 | 53 | 1017.0 |
| 20260508171402 | 63 | 96 | 3.5 | 7.8 | 0.00 | 0.00 | 0.00 | 51 | 1016.8 |
| 20260508171139 | 63 | 71 | 2.6 | 7.8 | 0.00 | 0.00 | 0.00 | 51 | 1016.8 |
| 20260508170403 | 64 | 68 | 4.3 | 7.8 | 0.00 | 0.00 | 0.00 | 51 | 1016.9 |
| 20260508165903 | 64 | 55 | 3.5 | 8.7 | 0.00 | 0.00 | 0.00 | 51 | 1016.8 |
| 20260508165713 | 64 | 75 | 3.5 | 8.7 | 0.00 | 0.00 | 0.00 | 51 | 1016.7 |
| 20260508164901 | 64 | 51 | 1.7 | 5.2 | 0.00 | 0.00 | 0.00 | 50 | 1016.6 |
| 20260508164402 | 64 | 52 | 1.7 | 9.6 | 0.00 | 0.00 | 0.00 | 51 | 1016.5 |
| 20260508164153 | 64 | 32 | 4.3 | 9.6 | 0.00 | 0.00 | 0.00 | 51 | 1016.6 |
| 20260508163401 | 64 | 80 | 4.3 | 9.6 | 0.00 | 0.00 | 0.00 | 49 | 1016.6 |
| 20260508162904 | 64 | 83 | 5.2 | 9.6 | 0.00 | 0.00 | 0.00 | 48 | 1016.5 |
| 20260508162402 | 64 | 54 | 5.2 | 9.6 | 0.00 | 0.00 | 0.00 | 50 | 1016.4 |
| 20260508161902 | 64 | 41 | 4.3 | 6.1 | 0.00 | 0.00 | 0.00 | 49 | 1016.5 |
| 20260508161403 | 64 | 31 | 3.5 | 8.7 | 0.00 | 0.00 | 0.00 | 48 | 1016.6 |
| 20260508160903 | 64 | 58 | 3.5 | 10.4 | 0.00 | 0.00 | 0.00 | 48 | 1016.7 |
| 20260508160715 | 65 | 65 | 4.3 | 10.4 | 0.00 | 0.00 | 0.00 | 48 | 1016.7 |
| 20260508155904 | 65 | 34 | 5.2 | 9.6 | 0.00 | 0.00 | 0.00 | 49 | 1016.6 |
| 20260508155410 | 65 | 35 | 4.3 | 9.6 | 0.00 | 0.00 | 0.00 | 50 | 1016.7 |
| 20260508154902 | 65 | 37 | 3.5 | 7.8 | 0.00 | 0.00 | 0.00 | 47 | 1016.6 |
| 20260508154657 | 65 | 25 | 2.6 | 7.8 | 0.00 | 0.00 | 0.00 | 48 | 1016.6 |
| 20260508153901 | 65 | 55 | 4.3 | 9.6 | 0.00 | 0.00 | 0.00 | 49 | 1016.6 |
| 20260508153403 | 65 | 44 | 5.2 | 9.6 | 0.00 | 0.00 | 0.00 | 49 | 1016.6 |
| 20260508152902 | 64 | 58 | 5.2 | 11.3 | 0.00 | 0.00 | 0.00 | 50 | 1016.7 |
| 20260508152403 | 64 | 30 | 6.1 | 11.3 | 0.00 | 0.00 | 0.00 | 49 | 1016.6 |
| 20260508151903 | 65 | 51 | 4.3 | 8.7 | 0.00 | 0.00 | 0.00 | 50 | 1016.8 |
| 20260508151651 | 65 | 49 | 4.3 | 8.7 | 0.00 | 0.00 | 0.00 | 49 | 1016.8 |
| 20260508150902 | 65 | 66 | 3.5 | 8.7 | 0.00 | 0.00 | 0.00 | 48 | 1016.8 |
| 20260508150417 | 65 | 48 | 2.6 | 9.6 | 0.00 | 0.00 | 0.00 | 47 | 1016.9 |
| 20260508145903 | 65 | 23 | 4.3 | 9.6 | 0.00 | 0.00 | 0.00 | 47 | 1016.8 |
| 20260508145402 | 65 | 58 | 4.3 | 8.7 | 0.00 | 0.00 | 0.00 | 48 | 1016.8 |
| 20260508144902 | 65 | 38 | 4.3 | 9.6 | 0.00 | 0.00 | 0.00 | 47 | 1016.8 |
| 20260508144402 | 66 | 54 | 5.2 | 9.6 | 0.00 | 0.00 | 0.00 | 49 | 1016.8 |
| 20260508143902 | 67 | 38 | 5.2 | 10.4 | 0.00 | 0.00 | 0.00 | 47 | 1016.8 |
| 20260508143717 | 68 | 42 | 6.1 | 10.4 | 0.00 | 0.00 | 0.00 | 46 | 1016.9 |
| 20260508142904 | 68 | 27 | 2.6 | 8.7 | 0.00 | 0.00 | 0.00 | 46 | 1016.9 |
| 20260508142424 | 67 | 62 | 4.3 | 8.7 | 0.00 | 0.00 | 0.00 | 48 | 1017.0 |
| 20260508141903 | 66 | 63 | 4.3 | 11.3 | 0.00 | 0.00 | 0.00 | 52 | 1017.0 |
| 20260508141402 | 65 | 76 | 5.2 | 11.3 | 0.00 | 0.00 | 0.00 | 50 | 1017.0 |
| 20260508140902 | 64 | 61 | 3.5 | 9.6 | 0.00 | 0.00 | 0.00 | 52 | 1017.1 |
| 20260508140402 | 64 | 47 | 6.1 | 9.6 | 0.00 | 0.00 | 0.00 | 50 | 1017.1 |
| 20260508135902 | 64 | 89 | 4.3 | 7.8 | 0.00 | 0.00 | 0.00 | 51 | 1017.2 |
| 20260508135402 | 65 | 73 | 3.5 | 8.7 | 0.00 | 0.00 | 0.00 | 51 | 1017.2 |
| 20260508134902 | 66 | 27 | 4.3 | 8.7 | 0.00 | 0.00 | 0.00 | 50 | 1017.2 |
| 20260508134403 | 64 | 92 | 4.3 | 9.6 | 0.00 | 0.00 | 0.00 | 52 | 1017.2 |
| 20260508133901 | 64 | 37 | 5.2 | 9.6 | 0.00 | 0.00 | 0.00 | 52 | 1017.2 |
| 20260508133709 | 64 | 123 | 3.5 | 7.8 | 0.00 | 0.00 | 0.00 | 52 | 1017.4 |
| 20260508132910 | 64 | 51 | 5.2 | 8.7 | 0.00 | 0.00 | 0.00 | 51 | 1017.3 |
| 20260508132402 | 64 | 62 | 4.3 | 8.7 | 0.00 | 0.00 | 0.00 | 50 | 1017.4 |
| 20260508131902 | 64 | 54 | 4.3 | 8.7 | 0.00 | 0.00 | 0.00 | 50 | 1017.3 |
| 20260508131402 | 64 | 68 | 5.2 | 10.4 | 0.00 | 0.00 | 0.00 | 50 | 1017.5 |
| 20260508130902 | 64 | 49 | 6.1 | 10.4 | 0.00 | 0.00 | 0.00 | 53 | 1017.4 |
| 20260508130402 | 63 | 90 | 5.2 | 8.7 | 0.00 | 0.00 | 0.00 | 53 | 1017.4 |
| 20260508125902 | 63 | 52 | 2.6 | 8.7 | 0.00 | 0.00 | 0.00 | 51 | 1017.3 |
| 20260508125653 | 63 | 61 | 3.5 | 7.8 | 0.00 | 0.00 | 0.00 | 53 | 1017.4 |
| 20260508124902 | 63 | 72 | 4.3 | 8.7 | 0.00 | 0.00 | 0.00 | 54 | 1017.4 |
| 20260508124417 | 63 | 42 | 4.3 | 8.7 | 0.00 | 0.00 | 0.00 | 53 | 1017.4 |
| 20260508123902 | 64 | 54 | 4.3 | 9.6 | 0.00 | 0.00 | 0.00 | 53 | 1017.4 |
| 20260508123402 | 64 | 34 | 5.2 | 9.6 | 0.00 | 0.00 | 0.00 | 52 | 1017.4 |
| 20260508122903 | 64 | 28 | 4.3 | 7.8 | 0.00 | 0.00 | 0.00 | 57 | 1017.4 |
| 20260508122402 | 64 | 28 | 3.5 | 7.8 | 0.00 | 0.00 | 0.00 | 53 | 1017.4 |
| 20260508121918 | 64 | 24 | 2.6 | 7.8 | 0.00 | 0.00 | 0.00 | 53 | 1017.4 |
| 20260508121401 | 64 | 41 | 3.5 | 7.8 | 0.00 | 0.00 | 0.00 | 55 | 1017.3 |
| 20260508120919 | 64 | 65 | 2.6 | 7.8 | 0.00 | 0.00 | 0.00 | 51 | 1017.4 |
| 20260508120402 | 63 | 106 | 3.5 | 7.8 | 0.00 | 0.00 | 0.00 | 53 | 1017.4 |
| 20260508115902 | 63 | 62 | 0.9 | 5.2 | 0.00 | 0.00 | 0.00 | 52 | 1017.3 |
| 20260508115401 | 63 | 24 | 2.6 | 5.2 | 0.00 | 0.00 | 0.00 | 55 | 1017.3 |
| 20260508115150 | 64 | 72 | 0.9 | 5.2 | 0.00 | 0.00 | 0.00 | 52 | 1017.3 |
| 20260508114651 | 64 | 54 | 0.9 | 4.3 | 0.00 | 0.00 | 0.00 | 52 | 1017.3 |
| 20260508114153 | 64 | 35 | 0.0 | 5.2 | 0.00 | 0.00 | 0.00 | 52 | 1017.4 |
| 20260508113403 | 64 | 106 | 2.6 | 7.8 | 0.00 | 0.00 | 0.00 | 50 | 1017.4 |
| 20260508112903 | 64 | 87 | 2.6 | 7.8 | 0.00 | 0.00 | 0.00 | 53 | 1017.4 |
| 20260508112404 | 64 | 62 | 3.5 | 7.8 | 0.00 | 0.00 | 0.00 | 52 | 1017.4 |
| 20260508111903 | 64 | 104 | 5.2 | 7.8 | 0.00 | 0.00 | 0.00 | 54 | 1017.5 |
| 20260508111402 | 64 | 148 | 2.6 | 5.2 | 0.00 | 0.00 | 0.00 | 52 | 1017.5 |
| 20260508110901 | 64 | 45 | 0.9 | 4.3 | 0.00 | 0.00 | 0.00 | 54 | 1017.5 |
| 20260508110403 | 64 | 99 | 0.9 | 6.1 | 0.00 | 0.00 | 0.00 | 52 | 1017.5 |
| 20260508105903 | 64 | 124 | 1.7 | 6.1 | 0.00 | 0.00 | 0.00 | 50 | 1017.4 |
| 20260508105432 | 64 | 166 | 3.5 | 5.2 | 0.00 | 0.00 | 0.00 | 52 | 1017.5 |
| 20260508104917 | 63 | 102 | 1.7 | 5.2 | 0.00 | 0.00 | 0.00 | 60 | 1017.5 |
| 20260508104404 | 63 | 38 | 2.6 | 5.2 | 0.00 | 0.00 | 0.00 | 57 | 1017.6 |
| 20260508103906 | 64 | 34 | 2.6 | 5.2 | 0.00 | 0.00 | 0.00 | 57 | 1017.5 |
| 20260508103403 | 63 | 24 | 3.5 | 4.3 | 0.00 | 0.00 | 0.00 | 58 | 1017.5 |
| 20260508102902 | 63 | 28 | 1.7 | 4.3 | 0.00 | 0.00 | 0.00 | 61 | 1017.5 |
| 20260508102655 | 63 | 47 | 1.7 | 4.3 | 0.00 | 0.00 | 0.00 | 61 | 1017.6 |
| 20260508101902 | 63 | 92 | 1.7 | 5.2 | 0.00 | 0.00 | 0.00 | 59 | 1017.6 |
| 20260508101654 | 63 | 73 | 2.6 | 5.2 | 0.00 | 0.00 | 0.00 | 58 | 1017.5 |
| 20260508100902 | 63 | 47 | 0.9 | 4.3 | 0.00 | 0.00 | 0.00 | 61 | 1017.6 |
| 20260508100706 | 62 | 55 | 2.6 | 5.2 | 0.00 | 0.00 | 0.00 | 63 | 1017.6 |
| 20260508100152 | 62 | 65 | 1.7 | 5.2 | 0.00 | 0.00 | 0.00 | 62 | 1017.6 |
| 20260508095403 | 62 | 32 | 0.9 | 4.3 | 0.00 | 0.00 | 0.00 | 66 | 1017.7 |
| 20260508094914 | 62 | 76 | 1.7 | 4.3 | 0.00 | 0.00 | 0.00 | 66 | 1017.7 |
| 20260508094403 | 61 | 37 | 2.6 | 3.5 | 0.00 | 0.00 | 0.00 | 65 | 1017.7 |
| 20260508093902 | 61 | 62 | 1.7 | 3.5 | 0.00 | 0.00 | 0.00 | 66 | 1017.7 |
| 20260508093401 | 61 | 4 | 1.7 | 4.3 | 0.00 | 0.00 | 0.00 | 68 | 1017.7 |
| 20260508092903 | 60 | 42 | 2.6 | 4.3 | 0.00 | 0.00 | 0.00 | 69 | 1017.6 |
| 20260508092402 | 60 | 49 | 2.6 | 4.3 | 0.00 | 0.00 | 0.00 | 70 | 1017.6 |
| 20260508091902 | 59 | 68 | 2.6 | 4.3 | 0.00 | 0.00 | 0.00 | 71 | 1017.6 |
| 20260508091402 | 59 | 49 | 1.7 | 3.5 | 0.00 | 0.00 | 0.00 | 70 | 1017.7 |
| 20260508090941 | 58 | 66 | 1.7 | 3.5 | 0.00 | 0.00 | 0.00 | 74 | 1017.8 |
| 20260508090927 | 59 | 45 | 2.6 | 3.5 | 0.00 | 0.00 | 0.00 | 70 | 1017.7 |
| 20260508085902 | 58 | 38 | 0.0 | 2.6 | 0.00 | 0.00 | 0.00 | 73 | 1017.7 |
| 20260508085403 | 58 | 68 | 0.0 | 3.5 | 0.00 | 0.00 | 0.00 | 72 | 1017.8 |
| 20260508084903 | 58 | 68 | 1.7 | 3.5 | 0.00 | 0.00 | 0.00 | 73 | 1017.7 |
| 20260508084401 | 58 | 113 | 2.6 | 3.5 | 0.00 | 0.00 | 0.00 | 74 | 1017.8 |
| 20260508083901 | 57 | 85 | 0.0 | 3.5 | 0.00 | 0.00 | 0.00 | 74 | 1017.8 |
| 20260508083653 | 57 | 86 | 1.7 | 3.5 | 0.00 | 0.00 | 0.00 | 75 | 1017.7 |
| 20260508083215 | 57 | 89 | 1.7 | 2.6 | 0.00 | 0.00 | 0.00 | 75 | 1017.8 |
| 20260508082547 | 56 | 94 | 0.0 | 2.6 | 0.00 | 0.00 | 0.00 | 75 | 1017.7 |
| 20260508082503 | 56 | 90 | 0.0 | 0.0 | 0.00 | 0.00 | 0.00 | 75 | 1017.7 |
| 20260508082231 | 56 | 97 | 0.0 | 0.9 | 0.00 | 0.00 | 0.00 | 76 | 1017.6 |
| 20260508080903 | 56 | 94 | 1.7 | 3.5 | 0.00 | 0.00 | 0.00 | 75 | 1017.6 |
| 20260508080402 | 56 | 102 | 0.9 | 3.5 | 0.00 | 0.00 | 0.00 | 76 | 1017.7 |
| 20260508080156 | 56 | 104 | 1.7 | 3.5 | 0.00 | 0.00 | 0.00 | 78 | 1017.6 |
| 20260508075403 | 56 | 85 | 0.0 | 2.6 | 0.00 | 0.00 | 0.00 | 77 | 1017.6 |
| 20260508075153 | 55 | 89 | 1.7 | 3.5 | 0.00 | 0.00 | 0.00 | 78 | 1017.6 |
| 20260508074402 | 55 | 89 | 1.7 | 3.5 | 0.00 | 0.00 | 0.00 | 78 | 1017.5 |
| 20260508073901 | 55 | 75 | 1.7 | 3.5 | 0.00 | 0.00 | 0.00 | 79 | 1017.5 |
| 20260508073401 | 55 | 80 | 1.7 | 2.6 | 0.00 | 0.00 | 0.00 | 79 | 1017.5 |
| 20260508072903 | 54 | 58 | 0.9 | 2.6 | 0.00 | 0.00 | 0.00 | 79 | 1017.5 |
| 20260508072403 | 54 | 65 | 0.0 | 2.6 | 0.00 | 0.00 | 0.00 | 80 | 1017.6 |
| 20260508071904 | 54 | 82 | 0.0 | 4.3 | 0.00 | 0.00 | 0.00 | 80 | 1017.4 |
| 20260508071513 | 54 | 75 | 1.7 | 3.5 | 0.00 | 0.00 | 0.00 | 80 | 1017.4 |
| 20260508071445 | 54 | 58 | 1.7 | 4.3 | 0.00 | 0.00 | 0.00 | 80 | 1017.4 |
| 20260508070749 | 53 | 48 | 1.7 | 3.5 | 0.00 | 0.00 | 0.00 | 81 | 1017.5 |
| 20260508065919 | 53 | 47 | 1.7 | 3.5 | 0.00 | 0.00 | 0.00 | 81 | 1017.4 |
| 20260508065406 | 53 | 61 | 2.6 | 4.3 | 0.00 | 0.00 | 0.00 | 81 | 1017.3 |
| 20260508064902 | 53 | 66 | 2.6 | 4.3 | 0.00 | 0.00 | 0.00 | 81 | 1017.3 |
| 20260508064403 | 53 | 66 | 1.7 | 4.3 | 0.00 | 0.00 | 0.00 | 81 | 1017.2 |
| 20260508063902 | 53 | 44 | 2.6 | 4.3 | 0.00 | 0.00 | 0.00 | 81 | 1017.2 |
| 20260508063401 | 53 | 52 | 1.7 | 4.3 | 0.00 | 0.00 | 0.00 | 82 | 1017.2 |
| 20260508062903 | 53 | 82 | 1.7 | 3.5 | 0.00 | 0.00 | 0.00 | 82 | 1017.2 |
| 20260508062405 | 52 | 78 | 1.7 | 4.3 | 0.00 | 0.00 | 0.00 | 82 | 1017.2 |
| 20260508061902 | 52 | 97 | 1.7 | 4.3 | 0.00 | 0.00 | 0.00 | 82 | 1017.1 |
| 20260508061402 | 52 | 86 | 3.5 | 4.3 | 0.00 | 0.00 | 0.00 | 82 | 1017.1 |
| 20260508060902 | 52 | 97 | 0.0 | 4.3 | 0.00 | 0.00 | 0.00 | 82 | 1017.0 |
| 20260508060654 | 52 | 97 | 1.7 | 4.3 | 0.00 | 0.00 | 0.00 | 82 | 1017.1 |
| 20260508055903 | 52 | 97 | 1.7 | 4.3 | 0.00 | 0.00 | 0.00 | 82 | 1017.0 |
| 20260508055415 | 52 | 100 | 1.7 | 4.3 | 0.00 | 0.00 | 0.00 | 82 | 1016.9 |
| 20260508054902 | 51 | 59 | 2.6 | 4.3 | 0.00 | 0.00 | 0.00 | 82 | 1017.0 |
| 20260508054417 | 51 | 93 | 1.7 | 4.3 | 0.00 | 0.00 | 0.00 | 82 | 1017.0 |
| 20260508053905 | 51 | 86 | 1.7 | 3.5 | 0.00 | 0.00 | 0.00 | 83 | 1017.0 |
| 20260508053406 | 51 | 75 | 2.6 | 3.5 | 0.00 | 0.00 | 0.00 | 83 | 1017.0 |
| 20260508052905 | 51 | 76 | 1.7 | 2.6 | 0.00 | 0.00 | 0.00 | 83 | 1016.9 |
| 20260508052403 | 51 | 96 | 0.9 | 2.6 | 0.00 | 0.00 | 0.00 | 83 | 1016.9 |
| 20260508051904 | 51 | 92 | 0.0 | 2.6 | 0.00 | 0.00 | 0.00 | 83 | 1016.9 |
| 20260508051403 | 51 | 90 | 0.0 | 4.3 | 0.00 | 0.00 | 0.00 | 83 | 1016.8 |
| 20260508050903 | 51 | 89 | 0.9 | 4.3 | 0.00 | 0.00 | 0.00 | 83 | 1016.8 |
| 20260508050403 | 51 | 71 | 1.7 | 3.5 | 0.00 | 0.00 | 0.00 | 83 | 1016.8 |
| 20260508045903 | 51 | 86 | 0.9 | 2.6 | 0.00 | 0.00 | 0.00 | 83 | 1016.8 |
| 20260508045404 | 51 | 86 | 0.0 | 3.5 | 0.00 | 0.00 | 0.00 | 83 | 1016.9 |
| 20260508045153 | 51 | 87 | 2.6 | 3.5 | 0.00 | 0.00 | 0.00 | 83 | 1016.7 |
| 20260508044402 | 51 | 83 | 2.6 | 3.5 | 0.00 | 0.00 | 0.00 | 83 | 1016.7 |
| 20260508043902 | 50 | 69 | 0.0 | 0.0 | 0.00 | 0.00 | 0.00 | 83 | 1016.7 |
| 20260508043647 | 50 | 69 | 0.0 | 2.6 | 0.00 | 0.00 | 0.00 | 83 | 1016.6 |
| 20260508042902 | 50 | 69 | 0.0 | 2.6 | 0.00 | 0.00 | 0.00 | 83 | 1016.7 |
| 20260508042402 | 50 | 89 | 0.9 | 2.6 | 0.00 | 0.00 | 0.00 | 83 | 1016.7 |
| 20260508041912 | 50 | 94 | 0.9 | 3.5 | 0.00 | 0.00 | 0.00 | 84 | 1016.6 |
| 20260508041402 | 50 | 96 | 1.7 | 3.5 | 0.00 | 0.00 | 0.00 | 84 | 1016.6 |
| 20260508040901 | 50 | 92 | 1.7 | 3.5 | 0.00 | 0.00 | 0.00 | 84 | 1016.6 |
| 20260508040401 | 50 | 71 | 0.0 | 0.0 | 0.00 | 0.00 | 0.00 | 84 | 1016.6 |
| 20260508040146 | 50 | 71 | 0.0 | 0.0 | 0.00 | 0.00 | 0.00 | 84 | 1016.6 |
| 20260508035401 | 50 | 72 | 0.0 | 2.6 | 0.00 | 0.00 | 0.00 | 84 | 1016.6 |
| 20260508035138 | 50 | 71 | 0.0 | 2.6 | 0.00 | 0.00 | 0.00 | 84 | 1016.6 |
| 20260508034402 | 50 | 69 | 0.0 | 1.7 | 0.00 | 0.00 | 0.00 | 85 | 1016.5 |
| 20260508033901 | 50 | 63 | 0.0 | 0.9 | 0.00 | 0.00 | 0.00 | 85 | 1016.5 |
| 20260508033413 | 50 | 65 | 0.0 | 0.0 | 0.00 | 0.00 | 0.00 | 85 | 1016.5 |
| 20260508032904 | 50 | 65 | 0.0 | 0.0 | 0.00 | 0.00 | 0.00 | 86 | 1016.6 |
| 20260508032402 | 50 | 65 | 0.0 | 0.0 | 0.00 | 0.00 | 0.00 | 86 | 1016.5 |
| 20260508032154 | 50 | 65 | 0.0 | 0.0 | 0.00 | 0.00 | 0.00 | 85 | 1016.5 |
| 20260508031402 | 50 | 65 | 0.0 | 0.0 | 0.00 | 0.00 | 0.00 | 85 | 1016.5 |
| 20260508030902 | 50 | 65 | 0.0 | 0.0 | 0.00 | 0.00 | 0.00 | 86 | 1016.4 |
| 20260508030647 | 50 | 61 | 0.0 | 0.0 | 0.00 | 0.00 | 0.00 | 86 | 1016.4 |
| 20260508025904 | 50 | 61 | 0.0 | 0.0 | 0.00 | 0.00 | 0.00 | 85 | 1016.4 |
| 20260508025401 | 50 | 61 | 0.0 | 0.0 | 0.00 | 0.00 | 0.00 | 85 | 1016.5 |
| 20260508024902 | 50 | 61 | 0.0 | 0.0 | 0.00 | 0.00 | 0.00 | 85 | 1016.5 |
| 20260508024403 | 50 | 61 | 0.0 | 0.0 | 0.00 | 0.00 | 0.00 | 85 | 1016.5 |
| 20260508023901 | 50 | 61 | 0.0 | 0.0 | 0.00 | 0.00 | 0.00 | 85 | 1016.5 |
| 20260508023402 | 50 | 61 | 0.0 | 0.0 | 0.00 | 0.00 | 0.00 | 85 | 1016.4 |
| 20260508022903 | 50 | 61 | 0.0 | 0.0 | 0.00 | 0.00 | 0.00 | 85 | 1016.6 |
| 20260508022403 | 50 | 61 | 0.0 | 0.0 | 0.00 | 0.00 | 0.00 | 85 | 1016.5 |
| 20260508021902 | 50 | 61 | 0.0 | 0.0 | 0.00 | 0.00 | 0.00 | 85 | 1016.6 |
| 20260508021402 | 50 | 61 | 0.0 | 0.0 | 0.00 | 0.00 | 0.00 | 84 | 1016.4 |
| 20260508020903 | 50 | 61 | 0.0 | 0.0 | 0.00 | 0.00 | 0.00 | 83 | 1016.5 |
| 20260508020402 | 50 | 61 | 0.0 | 0.0 | 0.00 | 0.00 | 0.00 | 83 | 1016.4 |
| 20260508015901 | 51 | 61 | 0.0 | 0.0 | 0.00 | 0.00 | 0.00 | 83 | 1016.4 |
| 20260508015403 | 51 | 61 | 0.0 | 0.0 | 0.00 | 0.00 | 0.00 | 83 | 1016.4 |
| 20260508014902 | 51 | 61 | 0.0 | 0.0 | 0.00 | 0.00 | 0.00 | 83 | 1016.4 |
| 20260508014403 | 51 | 61 | 0.0 | 0.0 | 0.00 | 0.00 | 0.00 | 83 | 1016.5 |
| 20260508014222 | 51 | 61 | 0.0 | 0.0 | 0.00 | 0.00 | 0.00 | 84 | 1016.5 |
| 20260508013402 | 51 | 59 | 0.0 | 0.0 | 0.00 | 0.00 | 0.00 | 84 | 1016.5 |
| 20260508012904 | 51 | 61 | 0.0 | 0.0 | 0.00 | 0.00 | 0.00 | 82 | 1016.5 |
| 20260508012438 | 51 | 61 | 0.0 | 0.0 | 0.00 | 0.00 | 0.00 | 82 | 1016.6 |
| 20260508012426 | 51 | 61 | 0.0 | 0.0 | 0.00 | 0.00 | 0.00 | 81 | 1016.5 |
| 20260508011644 | 51 | 61 | 0.0 | 0.0 | 0.00 | 0.00 | 0.00 | 82 | 1016.5 |
| 20260508010901 | 52 | 61 | 0.0 | 0.0 | 0.00 | 0.00 | 0.00 | 82 | 1016.5 |
| 20260508010403 | 52 | 61 | 0.0 | 0.0 | 0.00 | 0.00 | 0.00 | 83 | 1016.5 |
| 20260508010220 | 52 | 61 | 0.0 | 0.0 | 0.00 | 0.00 | 0.00 | 83 | 1016.4 |
| 20260508005403 | 52 | 61 | 0.0 | 0.9 | 0.00 | 0.00 | 0.00 | 82 | 1016.5 |
| 20260508004902 | 52 | 59 | 0.0 | 1.7 | 0.00 | 0.00 | 0.00 | 82 | 1016.5 |
| 20260508004402 | 52 | 61 | 0.0 | 2.6 | 0.00 | 0.00 | 0.00 | 82 | 1016.6 |
| 20260508003902 | 52 | 61 | 1.7 | 3.5 | 0.00 | 0.00 | 0.00 | 84 | 1016.6 |
| 20260508003404 | 52 | 62 | 1.7 | 3.5 | 0.00 | 0.00 | 0.00 | 86 | 1016.6 |
| 20260508002902 | 52 | 62 | 0.0 | 0.0 | 0.00 | 0.00 | 0.00 | 86 | 1016.8 |
| 20260508002402 | 52 | 62 | 0.0 | 0.0 | 0.00 | 0.00 | 0.00 | 86 | 1016.7 |
| 20260508001902 | 52 | 62 | 0.0 | 0.0 | 0.00 | 0.00 | 0.00 | 85 | 1016.6 |
| 20260508001402 | 52 | 62 | 0.0 | 0.0 | 0.00 | 0.00 | 0.00 | 85 | 1016.7 |
| 20260508000901 | 52 | 62 | 0.0 | 0.0 | 0.00 | 0.00 | 0.00 | 85 | 1016.7 |
| 20260508000402 | 52 | 62 | 0.0 | 0.0 | 0.00 | 0.00 | 0.00 | 85 | 1016.7 |
| 20260507235903 | 52 | 62 | 0.0 | 0.0 | 0.00 | 0.00 | 0.00 | 85 | 1016.7 |
| 20260507235416 | 52 | 62 | 0.0 | 0.0 | 0.00 | 0.00 | 0.00 | 85 | 1016.7 |
| 20260507234904 | 52 | 62 | 0.0 | 0.0 | 0.00 | 0.00 | 0.00 | 85 | 1016.7 |
| 20260507234701 | 52 | 62 | 0.0 | 0.0 | 0.00 | 0.00 | 0.00 | 84 | 1016.8 |
| 20260507233902 | 52 | 62 | 0.0 | 0.0 | 0.00 | 0.00 | 0.00 | 84 | 1016.8 |
| 20260507233401 | 52 | 62 | 0.0 | 0.0 | 0.00 | 0.00 | 0.00 | 84 | 1016.9 |
| 20260507232903 | 52 | 62 | 0.0 | 0.0 | 0.00 | 0.00 | 0.00 | 84 | 1016.9 |
| 20260507232402 | 52 | 62 | 0.0 | 0.0 | 0.00 | 0.00 | 0.00 | 84 | 1016.8 |
| 20260507231902 | 52 | 62 | 0.0 | 0.0 | 0.00 | 0.00 | 0.00 | 84 | 1016.9 |
| 20260507231402 | 52 | 62 | 0.0 | 0.0 | 0.00 | 0.00 | 0.00 | 84 | 1017.0 |
| 20260507230913 | 52 | 62 | 0.0 | 0.0 | 0.00 | 0.00 | 0.00 | 83 | 1016.9 |
| 20260507230402 | 52 | 62 | 0.0 | 0.0 | 0.00 | 0.00 | 0.00 | 81 | 1016.9 |
| 20260507225903 | 52 | 62 | 0.0 | 0.0 | 0.00 | 0.00 | 0.00 | 81 | 1017.0 |
| 20260507225403 | 52 | 62 | 0.0 | 0.0 | 0.00 | 0.00 | 0.00 | 81 | 1017.0 |
| 20260507224903 | 52 | 62 | 0.0 | 0.0 | 0.00 | 0.00 | 0.00 | 82 | 1016.9 |
| 20260507224402 | 52 | 62 | 0.0 | 0.0 | 0.00 | 0.00 | 0.00 | 82 | 1017.0 |
| 20260507224148 | 52 | 62 | 0.0 | 0.0 | 0.00 | 0.00 | 0.00 | 81 | 1016.9 |
| 20260507223406 | 52 | 62 | 0.0 | 0.0 | 0.00 | 0.00 | 0.00 | 80 | 1017.0 |
| 20260507222903 | 53 | 62 | 0.0 | 0.0 | 0.00 | 0.00 | 0.00 | 80 | 1017.1 |
| 20260507222404 | 53 | 62 | 0.0 | 0.0 | 0.00 | 0.00 | 0.00 | 80 | 1017.0 |
| 20260507221901 | 53 | 62 | 0.0 | 0.0 | 0.00 | 0.00 | 0.00 | 80 | 1016.9 |
| 20260507221422 | 53 | 62 | 0.0 | 0.0 | 0.00 | 0.00 | 0.00 | 80 | 1017.0 |
| 20260507220902 | 53 | 62 | 0.0 | 0.0 | 0.00 | 0.00 | 0.00 | 80 | 1017.0 |
| 20260507220719 | 53 | 62 | 0.0 | 0.0 | 0.00 | 0.00 | 0.00 | 80 | 1016.9 |
| 20260507215902 | 53 | 62 | 0.0 | 0.0 | 0.00 | 0.00 | 0.00 | 80 | 1016.9 |
| 20260507215402 | 53 | 62 | 0.0 | 0.0 | 0.00 | 0.00 | 0.00 | 78 | 1016.9 |
| 20260507214903 | 53 | 62 | 0.0 | 0.0 | 0.00 | 0.00 | 0.00 | 78 | 1016.9 |
| 20260507214403 | 53 | 62 | 0.0 | 0.0 | 0.00 | 0.00 | 0.00 | 78 | 1016.9 |
| 20260507213901 | 53 | 62 | 0.0 | 0.0 | 0.00 | 0.00 | 0.00 | 78 | 1016.9 |
| 20260507213401 | 53 | 62 | 0.0 | 0.0 | 0.00 | 0.00 | 0.00 | 78 | 1016.9 |
| 20260507212905 | 53 | 62 | 0.0 | 0.0 | 0.00 | 0.00 | 0.00 | 77 | 1016.8 |
| 20260507212402 | 53 | 62 | 0.0 | 0.0 | 0.00 | 0.00 | 0.00 | 76 | 1016.8 |
| 20260507212205 | 53 | 62 | 0.0 | 0.0 | 0.00 | 0.00 | 0.00 | 76 | 1016.9 |
| 20260507211402 | 53 | 62 | 0.0 | 0.0 | 0.00 | 0.00 | 0.00 | 76 | 1016.9 |
| 20260507210902 | 53 | 62 | 0.0 | 0.0 | 0.00 | 0.00 | 0.00 | 76 | 1016.8 |
| 20260507210401 | 54 | 62 | 0.0 | 0.0 | 0.00 | 0.00 | 0.00 | 76 | 1016.8 |
| 20260507205902 | 54 | 62 | 0.0 | 0.0 | 0.00 | 0.00 | 0.00 | 76 | 1016.8 |
| 20260507205701 | 54 | 62 | 0.0 | 0.0 | 0.00 | 0.00 | 0.00 | 75 | 1016.7 |
| 20260507204902 | 54 | 62 | 0.0 | 0.0 | 0.00 | 0.00 | 0.00 | 74 | 1016.8 |
| 20260507204403 | 54 | 62 | 0.0 | 0.0 | 0.00 | 0.00 | 0.00 | 74 | 1016.8 |
| 20260507203902 | 54 | 62 | 0.0 | 0.0 | 0.00 | 0.00 | 0.00 | 74 | 1016.8 |
| 20260507203643 | 54 | 62 | 0.0 | 0.0 | 0.00 | 0.00 | 0.00 | 73 | 1016.8 |
| 20260507202901 | 54 | 62 | 0.0 | 0.0 | 0.00 | 0.00 | 0.00 | 73 | 1016.7 |
| 20260507202419 | 54 | 62 | 0.0 | 0.0 | 0.00 | 0.00 | 0.00 | 73 | 1016.7 |
| 20260507201901 | 54 | 62 | 0.0 | 0.0 | 0.00 | 0.00 | 0.00 | 72 | 1016.7 |
| 20260507201724 | 55 | 62 | 0.0 | 0.0 | 0.00 | 0.00 | 0.00 | 71 | 1016.4 |
| 20260507201717 | 54 | 62 | 0.0 | 0.0 | 0.00 | 0.00 | 0.00 | 71 | 1016.5 |
| 20260507200402 | 55 | 62 | 0.0 | 0.0 | 0.00 | 0.00 | 0.00 | 73 | 1016.4 |
| 20260507195901 | 55 | 62 | 0.0 | 0.0 | 0.00 | 0.00 | 0.00 | 73 | 1016.4 |